Location: Le Petit-Vavre
(46.5081°N, 1.5239°E)
Time: 14:50:32
(UTC+00:00)

Cosmos 1943 Rocket - Pass Details

Date: 03 March 2021
Orbit: 811 x 844 km, 71.0° (Epoch: 19 April)

Event Time Altitude Azimuth Distance (km) Brightness Sun altitude
Rises 20:43:24 0° 339° (NNW) 3,414 6.0 -31.1°
Reaches altitude 10° 20:46:24 10° 354° (N) 2,475 5.0 -31.5°
Enters shadow 20:48:43 19° 15° (NNE) 1,925 4.1 -31.9°
